[[{"header":{"parameterUnit":"m.s-1","parameterCategory":1,"la1":30.2991,"la2":30.254,"lo1":-89.0895,"lo2":-89.0444,"dy":0.0017,"dx":0.0017,"nx":28,"ny":28,"refTime":"2024-03-27T21:00:00:Z","depth":0,"parameterNumber":2,"parameterNumberName":"U-component_of_WINDS"},"data":[0,0,0,0,0,0,0,0,0,0,0,0,0,0,0,0,0,0,0,0,0,0,0,0,0,0,0,0,0,0,0,0,0,0,0,0,0,0,0,0,0,0,0,0,0,0,0,0,0,0,0,0,0,0,0,0,0,0,-0.6987,-0.6988,0,-0.7073,-0.7074,-0.7074,-0.7046,-0.7044,-0.7042,-0.704,-0.7129,-0.7133,-0.7137,0,0,0,0,0,0,0,0,0,0,0,0,0,-0.6802,-0.6806,-0.6987,-0.6988,-0.699,-0.7072,-0.7074,-0.7075,-0.7046,-0.7044,-0.7041,-0.7039,-0.7128,-0.7133,-0.7138,0,0,0,0,0,0,0,0,0,0,0,0,0,-0.6885,-0.6807,-0.6987,-0.6985,-0.6986,-0.7072,-0.7074,-0.7075,-0.7046,-0.7044,-0.7041,-0.7038,-0.7126,-0.7132,-0.7138,-0.7233,0,0,-0.7157,-0.716,0,0,0,0,0,0,0,0,-0.688,-0.6891,-0.6984,-0.6985,-0.6986,-0.7046,-0.7041,-0.7128,-0.7047,-0.7024,-0.704,-0.7037,-0.7104,-0.7112,-0.7134,-0.7237,-0.7241,-0.7158,-0.7162,-0.7164,-0.7166,0,0,0,0,0,0,0,-0.6874,-0.6888,-0.7021,-0.6986,-0.6987,-0.6981,-0.6989,-0.7057,-0.7078,-0.7025,-0.7023,-0.7034,-0.7104,-0.7128,-0.7136,-0.7242,-0.7158,-0.7163,-0.7167,-0.7169,-0.7428,-0.7431,0,0,0,0,0,0,-0.6868,-0.6883,-0.7018,-0.7024,-0.6925,-0.6986,-0.6996,-0.7029,-0.7078,-0.7082,-0.7036,-0.7032,-0.7119,-0.7129,-0.7139,-0.7254,-0.7164,-0.717,-0.7174,-0.7425,-0.7429,-0.7432,0,0,0,0,0,0,-0.6864,-0.688,-0.7015,-0.6953,-0.697,-0.6992,-0.703,-0.7033,-0.7057,-0.7086,-0.709,-0.7057,-0.7117,-0.713,-0.721,-0.7256,-0.7173,-0.7178,-0.7421,-0.7426,-0.743,-0.7483,0,0,0,0,0,0,-0.6859,-0.6879,-0.6914,-0.6954,-0.6973,-0.7084,-0.7033,-0.7036,-0.7067,-0.7063,-0.7106,-0.7111,-0.7116,-0.7201,-0.7216,-0.7263,-0.7183,-0.7417,-0.7423,-0.7429,-0.7478,-0.7489,-0.7499,0,0,0,0,0,-0.6852,-0.6926,-0.6916,-0.6933,-0.7018,-0.7087,-0.7098,-0.7102,-0.7071,-0.7108,-0.7126,-0.7109,-0.7248,-0.7209,-0.7226,-0.7276,-0.7414,-0.7421,-0.7428,-0.7473,-0.7487,-0.7499,0,0,0,0,0,0,-0.6892,-0.6931,-0.6921,-0.701,-0.7045,-0.7082,-0.7128,-0.7117,-0.7162,-0.7156,-0.7159,-0.7169,-0.7252,-0.7271,-0.7227,-0.737,-0.7327,-0.7338,-0.7355,-0.7369,-0.7379,-0.7374,-0.7188,0,0,0,0,0,-0.6911,-0.6963,-0.6995,-0.707,-0.7088,-0.7105,-0.7135,-0.7135,-0.7172,-0.7187,-0.7212,-0.7249,-0.7301,-0.7336,-0.7385,-0.748,-0.749,-0.7522,-0.7533,-0.7542,-0.7552,-0.7605,-0.7621,-0.7455,-0.7455,-0.7455,0,0,-0.6951,-0.6979,-0.7012,-0.7079,-0.7106,-0.7161,-0.7118,-0.7177,-0.7219,-0.7196,-0.7274,-0.7293,-0.7335,-0.7423,-0.7462,-0.7442,-0.76,-0.7551,-0.7558,-0.7563,-0.7614,-0.763,-0.7644,-0.746,-0.7459,-0.7459,0,0,-0.7053,-0.7078,-0.7145,-0.7173,-0.7215,-0.7226,-0.7241,-0.728,-0.7292,-0.7369,-0.7354,-0.7403,-0.7492,-0.7523,-0.7551,-0.7664,-0.7651,-0.768,-0.7738,-0.7789,-0.7802,-0.7814,-0.7856,-0.7871,-0.7689,-0.7689,-0.769,0,-0.7098,-0.7179,-0.718,-0.7242,-0.7272,-0.7254,-0.7322,-0.7349,-0.7406,-0.7428,-0.7403,-0.7515,-0.7542,-0.7638,-0.7665,-0.7687,-0.7707,-0.7676,-0.78,-0.7812,-0.7823,-0.7863,-0.7879,-0.7693,-0.7692,-0.7692,-0.7692,0,-0.7234,-0.729,-0.7339,-0.7394,-0.7429,-0.7494,-0.7505,-0.7541,-0.7538,-0.7551,-0.7631,-0.7662,-0.7718,-0.774,-0.7738,-0.7836,-0.7822,-0.7799,-0.7756,-0.7842,-0.788,-0.7896,-0.7698,-0.7696,-0.7695,-0.7695,0,0,-0.7364,-0.7418,-0.7436,-0.7461,-0.7506,-0.7551,-0.7614,-0.7669,-0.7701,-0.7739,-0.7794,-0.787,-0.7849,-0.788,-0.7881,-0.7926,-0.8016,-0.7897,-0.7898,-0.792,-0.8129,-0.8147,-0.8165,-0.8006,-0.8009,-0.8012,-0.8126,0,-0.7471,-0.7583,-0.7586,-0.7688,-0.7742,-0.7725,-0.7781,-0.7815,-0.7829,-0.7877,-0.7892,-0.7947,-0.7914,-0.7933,-0.7977,-0.7996,-0.8058,-0.7987,-0.8059,-0.8062,-0.8051,-0.8185,-0.8205,-0.8311,-0.814,-0.8143,-0.8145,0,-0.7611,-0.7655,-0.7763,-0.7801,-0.7823,-0.7874,-0.7924,-0.7969,-0.8008,-0.8015,-0.805,-0.8044,-0.811,-0.8063,-0.8155,-0.8107,-0.8136,-0.815,-0.8154,-0.8163,-0.811,-0.8199,-0.8345,-0.8362,-0.8168,-0.8166,-0.8164,0,-0.7698,-0.7784,-0.786,-0.7882,-0.7927,-0.7963,-0.7984,-0.802,-0.8052,-0.8096,-0.8118,-0.8169,-0.8198,-0.8238,-0.8247,-0.8211,-0.834,-0.8293,-0.8349,-0.8349,-0.8379,-0.8377,-0.8533,-0.8394,-0.8393,-0.8393,-0.8393,0,-0.7819,-0.7886,-0.79,-0.7947,-0.8022,-0.8025,-0.8099,-0.8117,-0.8149,-0.82,-0.8188,-0.8236,-0.8243,-0.8293,-0.83,-0.8376,-0.8389,-0.8398,-0.8399,-0.84,-0.8399,-0.8421,-0.8415,-0.8397,-0.8396,-0.8396,-0.8395,0,-0.793,-0.7941,-0.8024,-0.806,-0.8071,-0.8125,-0.8156,-0.8202,-0.8214,-0.8279,-0.8295,-0.8315,-0.8373,-0.8385,-0.8454,-0.8458,-0.855,-0.8543,-0.8537,-0.8537,-0.8593,-0.8589,-0.8771,-0.8796,-0.8638,-0.8639,-0.8641,0,-0.8007,-0.8059,-0.81,-0.8134,-0.8156,-0.8209,-0.8243,-0.8247,-0.8283,-0.833,-0.8371,-0.8428,-0.8474,-0.8568,-0.859,-0.8643,-0.8638,-0.8698,-0.8646,-0.8646,-0.8642,-0.8639,-0.8645,-0.8709,-0.8711,-0.8712,-0.8713,0,-0.8144,-0.8147,-0.8195,-0.8246,-0.8287,-0.8327,-0.8365,-0.8393,-0.8402,-0.8443,-0.8502,-0.8538,-0.8609,-0.8666,-0.8719,-0.8741,-0.873,-0.8729,-0.8745,-0.8748,-0.8744,-0.8749,-0.8567,-0.8725,-0.8724,-0.8723,-0.8723,-0.8722,-0.8242,-0.8287,-0.8324,-0.8379,-0.8408,-0.8444,-0.8489,-0.8507,-0.8557,-0.8614,-0.8614,-0.8679,-0.8717,-0.8787,-0.8812,-0.8864,-0.8846,-0.8868,-0.8875,-0.8881,-0.8887,-0.8733,-0.8874,-0.8873,-0.8873,-0.8873,-0.8872,0,-0.838,-0.8403,-0.8453,-0.8507,-0.855,-0.8533,-0.8575,-0.8613,-0.8671,-0.8706,-0.8752,-0.8821,-0.8877,-0.8902,-0.8957,-0.8994,-0.899,-0.9008,-0.9007,-0.9013,-0.89,-0.8881,-0.9011,-0.9011,-0.9011,-0.9011,-0.9011,-0.9011,-0.8457,-0.8534,-0.8541,-0.8633,-0.8655,-0.8719,-0.8744,-0.8778,-0.8807,-0.8884,-0.893,-0.8946,-0.8978,-0.9035,-0.9086,-0.9092,-0.9114,-0.9136,-0.9139,-0.9034,-0.902,-0.9007,-0.899,-0.914,-0.914,-0.9248,-0.9249,-0.925]},{"header":{"parameterUnit":"m.s-1","parameterCategory":1,"la1":30.2991,"la2":30.254,"lo1":-89.0895,"lo2":-89.0444,"dy":0.0017,"dx":0.0017,"nx":28,"ny":28,"refTime":"2024-03-27T21:00:00:Z","depth":0,"parameterNumber":3,"parameterNumberName":"V-component_of_WINDS"},"data":[0,0,0,0,0,0,0,0,0,0,0,0,0,0,0,0,0,0,0,0,0,0,0,0,0,0,0,0,0,0,0,0,0,0,0,0,0,0,0,0,0,0,0,0,0,0,0,0,0,0,0,0,0,0,0,0,0,0,-2.2552,-2.2553,0,-2.2635,-2.2636,-2.2637,-2.2627,-2.2625,-2.2624,-2.2623,-2.2705,-2.2709,-2.2712,0,0,0,0,0,0,0,0,0,0,0,0,0,-2.2384,-2.2388,-2.2552,-2.2553,-2.2554,-2.2635,-2.2636,-2.2637,-2.2627,-2.2625,-2.2624,-2.2622,-2.2704,-2.2708,-2.2712,0,0,0,0,0,0,0,0,0,0,0,0,0,-2.2461,-2.2389,-2.2552,-2.2559,-2.256,-2.2634,-2.2636,-2.2637,-2.2627,-2.2625,-2.2623,-2.2621,-2.2703,-2.2708,-2.2713,-2.2784,0,0,-2.2729,-2.2731,0,0,0,0,0,0,0,0,-2.2457,-2.2467,-2.2557,-2.2559,-2.256,-2.2618,-2.2607,-2.2686,-2.2628,-2.2602,-2.2623,-2.262,-2.2678,-2.2685,-2.2705,-2.2788,-2.2792,-2.2729,-2.2732,-2.2734,-2.2736,0,0,0,0,0,0,0,-2.2451,-2.2464,-2.2585,-2.2558,-2.256,-2.2558,-2.2566,-2.2622,-2.265,-2.2604,-2.2603,-2.2613,-2.2678,-2.27,-2.2706,-2.2793,-2.2729,-2.2733,-2.2737,-2.2739,-2.2939,-2.2941,0,0,0,0,0,0,-2.2445,-2.2459,-2.2582,-2.2587,-2.2503,-2.2562,-2.2572,-2.2602,-2.2649,-2.2655,-2.2615,-2.2613,-2.2692,-2.2701,-2.2709,-2.2796,-2.2734,-2.2739,-2.2742,-2.2937,-2.294,-2.2942,0,0,0,0,0,0,-2.2441,-2.2456,-2.2579,-2.2523,-2.2539,-2.2567,-2.2601,-2.2604,-2.2626,-2.2658,-2.2662,-2.2632,-2.2691,-2.2702,-2.2766,-2.2799,-2.2741,-2.2746,-2.2934,-2.2938,-2.2941,-2.2971,0,0,0,0,0,0,-2.2436,-2.2454,-2.2482,-2.2524,-2.2542,-2.2635,-2.2603,-2.2607,-2.2635,-2.2633,-2.2675,-2.268,-2.269,-2.2758,-2.2771,-2.2805,-2.275,-2.2931,-2.2936,-2.294,-2.2967,-2.2975,-2.2981,0,0,0,0,0,-2.243,-2.2487,-2.2484,-2.2499,-2.2577,-2.2637,-2.2647,-2.2658,-2.2638,-2.2666,-2.2686,-2.2678,-2.2793,-2.2765,-2.2779,-2.2815,-2.2929,-2.2935,-2.2939,-2.2964,-2.2973,-2.2981,0,0,0,0,0,0,-2.2448,-2.2493,-2.249,-2.2561,-2.2595,-2.2635,-2.2671,-2.2668,-2.2707,-2.2704,-2.2715,-2.2725,-2.2789,-2.2808,-2.2776,-2.2887,-2.2858,-2.2867,-2.2872,-2.2881,-2.2889,-2.2883,-2.2754,0,0,0,0,0,-2.246,-2.2505,-2.2542,-2.2602,-2.2619,-2.2642,-2.2668,-2.2674,-2.2709,-2.2723,-2.2748,-2.2782,-2.2826,-2.2855,-2.2897,-2.297,-2.2979,-2.3001,-2.3009,-2.3014,-2.3021,-2.3061,-2.3072,-2.2959,-2.2959,-2.2958,0,0,-2.2486,-2.2516,-2.2544,-2.2606,-2.2633,-2.2679,-2.2654,-2.2704,-2.2738,-2.2731,-2.2793,-2.2812,-2.2851,-2.292,-2.2951,-2.2938,-2.3055,-2.3021,-2.3025,-2.3029,-2.3068,-2.3078,-2.3088,-2.2962,-2.2961,-2.2961,0,0,-2.2557,-2.2584,-2.2637,-2.2665,-2.2706,-2.2721,-2.2734,-2.2774,-2.2787,-2.285,-2.2845,-2.2885,-2.2961,-2.2989,-2.3013,-2.3094,-2.3088,-2.3107,-2.3145,-2.3184,-2.3193,-2.3201,-2.323,-2.324,-2.3114,-2.3114,-2.3114,0,-2.2584,-2.2653,-2.2665,-2.2715,-2.2743,-2.2739,-2.2793,-2.2819,-2.2871,-2.289,-2.2874,-2.2969,-2.2995,-2.307,-2.309,-2.3109,-2.3124,-2.3103,-2.3191,-2.3199,-2.3206,-2.3234,-2.3245,-2.3116,-2.3116,-2.3116,-2.3115,0,-2.2684,-2.2733,-2.277,-2.2822,-2.2854,-2.2906,-2.2924,-2.2955,-2.2958,-2.2974,-2.3038,-2.3069,-2.3117,-2.3135,-2.3138,-2.3211,-2.3201,-2.3188,-2.316,-2.3219,-2.3246,-2.3256,-2.3119,-2.3118,-2.3118,-2.3117,0,0,-2.2769,-2.2826,-2.284,-2.2864,-2.2909,-2.2946,-2.2998,-2.3046,-2.3072,-2.3108,-2.3151,-2.3215,-2.3203,-2.323,-2.3236,-2.3271,-2.3333,-2.3253,-2.3254,-2.3267,-2.3416,-2.3426,-2.3438,-2.333,-2.3332,-2.3333,-2.3412,0,-2.2844,-2.2936,-2.2948,-2.3029,-2.3074,-2.3071,-2.3115,-2.3148,-2.3164,-2.3204,-2.3222,-2.3267,-2.3248,-2.3265,-2.3298,-2.3319,-2.3363,-2.3313,-2.337,-2.3372,-2.3361,-2.3452,-2.3462,-2.3536,-2.3423,-2.3425,-2.3426,0,-2.2945,-2.2985,-2.3071,-2.311,-2.3129,-2.3169,-2.3214,-2.3253,-2.3289,-2.3299,-2.3329,-2.3331,-2.3384,-2.3353,-2.3425,-2.3391,-2.3415,-2.3428,-2.3431,-2.3437,-2.3403,-2.346,-2.3559,-2.357,-2.3442,-2.3441,-2.344,0,-2.2998,-2.3073,-2.3135,-2.3155,-2.3202,-2.323,-2.3251,-2.3286,-2.3314,-2.3353,-2.3371,-2.3415,-2.344,-2.3474,-2.3487,-2.3464,-2.3559,-2.3529,-2.3568,-2.3568,-2.3589,-2.3587,-2.3693,-2.3604,-2.3603,-2.3603,-2.3603,0,-2.3081,-2.3134,-2.3159,-2.3197,-2.3256,-2.3268,-2.3326,-2.3346,-2.3377,-2.3418,-2.3417,-2.3456,-2.3471,-2.3512,-2.3522,-2.3581,-2.3592,-2.3601,-2.3603,-2.3601,-2.36,-2.3617,-2.3613,-2.3606,-2.3605,-2.3605,-2.3604,0,-2.3151,-2.317,-2.3237,-2.3276,-2.3288,-2.3329,-2.3363,-2.3399,-2.3415,-2.3467,-2.348,-2.3505,-2.3553,-2.357,-2.3628,-2.3635,-2.3703,-2.3701,-2.3691,-2.3692,-2.373,-2.3726,-2.385,-2.3867,-2.3766,-2.3767,-2.3768,0,-2.3204,-2.3244,-2.3288,-2.3316,-2.3338,-2.3383,-2.3412,-2.3426,-2.3456,-2.35,-2.3531,-2.3579,-2.3618,-2.3694,-2.3717,-2.3762,-2.3761,-2.3801,-2.3767,-2.3764,-2.3762,-2.3759,-2.3764,-2.3808,-2.3809,-2.3809,-2.381,0,-2.3294,-2.3302,-2.3344,-2.3389,-2.3424,-2.346,-2.3495,-2.3518,-2.3537,-2.357,-2.362,-2.365,-2.3709,-2.3757,-2.3802,-2.3823,-2.382,-2.3821,-2.3832,-2.3831,-2.3824,-2.3828,-2.3709,-2.3818,-2.3817,-2.3816,-2.3816,-2.3816,-2.3358,-2.3394,-2.343,-2.3477,-2.3505,-2.3538,-2.3574,-2.3595,-2.3637,-2.3687,-2.3692,-2.3745,-2.378,-2.3841,-2.3864,-2.3905,-2.3894,-2.391,-2.3914,-2.3918,-2.3922,-2.3817,-2.3913,-2.3913,-2.3913,-2.3913,-2.3913,0,-2.3449,-2.3472,-2.3515,-2.3565,-2.3601,-2.3596,-2.3634,-2.3665,-2.3712,-2.3746,-2.3784,-2.3841,-2.3887,-2.3913,-2.3959,-2.3987,-2.3987,-2.3999,-2.3997,-2.4002,-2.3929,-2.3915,-2.3998,-2.3998,-2.3998,-2.3998,-2.3998,-2.3998,-2.3501,-2.3562,-2.3573,-2.3648,-2.3671,-2.3724,-2.3746,-2.3776,-2.3803,-2.3867,-2.3905,-2.3922,-2.3953,-2.4001,-2.4043,-2.4049,-2.4066,-2.4079,-2.4085,-2.4016,-2.4007,-2.3999,-2.3986,-2.4083,-2.4083,-2.4155,-2.4156,-2.4156]}]]